Time,TemperatureF,DewpointF,PressureIn,WindDirection,WindDirectionDegrees,WindSpeedMPH,WindSpeedGustMPH,Humidity,HourlyPrecipIn,Conditions,Clouds,dailyrainin,SoftwareType,DateUTC
2013-05-10 00:00:00,40.1,36.0,30.05,NE,37,0.0,4.0,85,0.00,,SKC,0.01,VWS V14.00,2013-05-10 06:00:00,
2013-05-10 00:05:00,39.9,35.8,30.05,NE,37,1.0,1.0,85,0.00,,SKC,0.00,VWS V14.00,2013-05-10 06:05:00,
2013-05-10 00:10:00,39.8,36.0,30.05,NE,37,0.0,2.0,86,0.00,,SKC,0.00,VWS V14.00,2013-05-10 06:10:00,
2013-05-10 00:15:00,39.4,35.3,30.06,NE,37,0.0,2.0,85,0.00,,SKC,0.00,VWS V14.00,2013-05-10 06:15:00,
2013-05-10 00:21:00,39.1,35.3,30.05,NE,37,0.0,2.0,86,0.00,,SKC,0.00,VWS V14.00,2013-05-10 06:21:00,
2013-05-10 00:26:00,38.9,35.4,30.06,NE,37,0.0,2.0,87,0.00,,SKC,0.00,VWS V14.00,2013-05-10 06:26:00,
2013-05-10 00:30:00,38.8,35.3,30.06,NE,37,0.0,3.0,87,0.00,,SKC,0.00,VWS V14.00,2013-05-10 06:30:00,
2013-05-10 00:31:00,38.8,35.3,30.06,NE,37,1.0,3.0,87,0.00,,SKC,0.00,VWS V14.00,2013-05-10 06:31:00,
2013-05-10 00:36:00,38.7,35.2,30.06,NE,37,1.0,3.0,87,0.00,,SKC,0.00,VWS V14.00,2013-05-10 06:36:00,
2013-05-10 00:42:00,38.8,35.3,30.06,NE,37,2.0,3.0,87,0.00,,SKC,0.00,VWS V14.00,2013-05-10 06:42:00,
2013-05-10 00:47:00,38.5,35.0,30.06,NE,37,0.0,3.0,87,0.00,,SKC,0.00,VWS V14.00,2013-05-10 06:47:00,
2013-05-10 00:52:00,38.4,34.9,30.06,NE,37,0.0,3.0,87,0.00,,SKC,0.00,VWS V14.00,2013-05-10 06:52:00,
2013-05-10 00:57:00,38.3,34.8,30.06,NE,37,0.0,3.0,87,0.00,,SKC,0.00,VWS V14.00,2013-05-10 06:57:00,
2013-05-10 01:00:00,38.1,36.0,30.06,NE,37,0.0,3.0,92,0.00,,SKC,0.00,VWS V14.00,2013-05-10 07:00:00,
2013-05-10 01:02:00,38.0,35.9,30.06,NE,37,0.0,0.0,92,0.00,,SKC,0.00,VWS V14.00,2013-05-10 07:02:00,
2013-05-10 01:08:00,37.8,34.6,30.06,NE,37,0.0,2.0,88,0.00,,SKC,0.00,VWS V14.00,2013-05-10 07:08:00,
2013-05-10 01:13:00,37.5,34.3,30.07,NE,37,0.0,3.0,88,0.00,,SKC,0.00,VWS V14.00,2013-05-10 07:13:00,
2013-05-10 01:18:00,37.3,34.4,30.07,NE,37,0.0,3.0,89,0.00,,SKC,0.00,VWS V14.00,2013-05-10 07:18:00,
2013-05-10 01:23:00,37.4,34.5,30.07,NE,37,0.0,3.0,89,0.00,,SKC,0.00,VWS V14.00,2013-05-10 07:23:00,
2013-05-10 01:28:00,37.5,34.6,30.07,NE,37,0.0,3.0,89,0.00,,SKC,0.00,VWS V14.00,2013-05-10 07:28:00,
2013-05-10 01:30:00,37.3,34.4,30.07,NE,37,1.0,3.0,89,0.00,,SKC,0.00,VWS V14.00,2013-05-10 07:30:00,
2013-05-10 01:34:00,37.2,34.3,30.07,NE,37,0.0,3.0,89,0.00,,SKC,0.00,VWS V14.00,2013-05-10 07:34:00,
2013-05-10 01:39:00,36.9,34.0,30.06,NE,37,1.0,3.0,89,0.00,,SKC,0.00,VWS V14.00,2013-05-10 07:39:00,
2013-05-10 01:44:00,36.8,34.2,30.07,NE,37,1.0,3.0,90,0.00,,SKC,0.00,VWS V14.00,2013-05-10 07:44:00,
2013-05-10 01:50:00,36.7,34.0,30.07,NE,37,0.0,3.0,90,0.00,,SKC,0.00,VWS V14.00,2013-05-10 07:50:00,
2013-05-10 01:55:00,36.6,34.0,30.07,NE,37,0.0,3.0,90,0.00,,SKC,0.00,VWS V14.00,2013-05-10 07:55:00,
2013-05-10 02:00:00,36.4,33.8,30.07,NE,37,0.0,3.0,90,0.00,,SKC,0.00,VWS V14.00,2013-05-10 08:00:00,
2013-05-10 02:05:00,36.3,33.7,30.07,NE,37,0.0,2.0,90,0.00,,SKC,0.00,VWS V14.00,2013-05-10 08:05:00,
2013-05-10 02:10:00,36.2,33.6,30.07,NE,37,0.0,2.0,90,0.00,,SKC,0.00,VWS V14.00,2013-05-10 08:10:00,
2013-05-10 02:16:00,36.2,33.8,30.07,NE,37,0.0,2.0,91,0.00,,SKC,0.00,VWS V14.00,2013-05-10 08:16:00,
2013-05-10 02:21:00,36.0,33.4,30.07,NE,37,0.0,2.0,90,0.00,,SKC,0.00,VWS V14.00,2013-05-10 08:21:00,
2013-05-10 02:26:00,36.0,33.4,30.07,NE,37,0.0,2.0,90,0.00,,SKC,0.00,VWS V14.00,2013-05-10 08:26:00,
2013-05-10 02:30:00,36.0,33.6,30.06,NE,37,1.0,2.0,91,0.00,,SKC,0.00,VWS V14.00,2013-05-10 08:30:00,
2013-05-10 02:31:00,36.0,33.6,30.06,NE,37,1.0,2.0,91,0.00,,SKC,0.00,VWS V14.00,2013-05-10 08:31:00,
2013-05-10 02:37:00,36.0,33.4,30.07,NE,37,0.0,2.0,90,0.00,,SKC,0.00,VWS V14.00,2013-05-10 08:37:00,
2013-05-10 02:42:00,35.8,33.2,30.07,NE,37,0.0,3.0,90,0.00,,SKC,0.00,VWS V14.00,2013-05-10 08:42:00,
2013-05-10 02:47:00,35.8,33.4,30.07,NE,37,2.0,3.0,91,0.00,,SKC,0.00,VWS V14.00,2013-05-10 08:47:00,
2013-05-10 02:52:00,35.8,33.2,30.06,NE,37,0.0,3.0,90,0.00,,SKC,0.00,VWS V14.00,2013-05-10 08:52:00,
2013-05-10 02:57:00,35.9,33.3,30.07,NE,37,0.0,3.0,90,0.00,,SKC,0.00,VWS V14.00,2013-05-10 08:57:00,
2013-05-10 03:00:00,35.9,33.3,30.07,NE,37,0.0,3.0,90,0.00,,SKC,0.00,VWS V14.00,2013-05-10 09:00:00,
2013-05-10 03:03:00,35.9,33.3,30.07,NE,37,0.0,0.0,90,0.00,,SKC,0.00,VWS V14.00,2013-05-10 09:03:00,
2013-05-10 03:08:00,35.8,33.2,30.07,NE,37,0.0,0.0,90,0.00,,SKC,0.00,VWS V14.00,2013-05-10 09:08:00,
2013-05-10 03:13:00,35.6,33.0,30.07,NE,37,0.0,0.0,90,0.00,,SKC,0.00,VWS V14.00,2013-05-10 09:13:00,
2013-05-10 03:18:00,35.5,32.9,30.07,NE,37,0.0,2.0,90,0.00,,SKC,0.00,VWS V14.00,2013-05-10 09:18:00,
2013-05-10 03:24:00,35.3,32.7,30.07,NE,37,0.0,2.0,90,0.00,,SKC,0.00,VWS V14.00,2013-05-10 09:24:00,
2013-05-10 03:29:00,35.1,32.7,30.08,NE,37,0.0,2.0,91,0.00,,SKC,0.00,VWS V14.00,2013-05-10 09:29:00,
2013-05-10 03:30:00,35.1,32.7,30.08,NE,37,1.0,2.0,91,0.00,,SKC,0.00,VWS V14.00,2013-05-10 09:30:00,
2013-05-10 03:34:00,35.0,32.6,30.08,NE,37,0.0,1.0,91,0.00,,SKC,0.00,VWS V14.00,2013-05-10 09:34:00,
2013-05-10 03:39:00,34.8,32.2,30.08,NE,37,0.0,1.0,90,0.00,,SKC,0.00,VWS V14.00,2013-05-10 09:39:00,
2013-05-10 03:44:00,34.6,32.2,30.08,NE,37,0.0,1.0,91,0.00,,SKC,0.00,VWS V14.00,2013-05-10 09:44:00,
2013-05-10 03:50:00,34.5,32.2,30.08,NE,37,0.0,1.0,91,0.00,,SKC,0.00,VWS V14.00,2013-05-10 09:50:00,
2013-05-10 03:55:00,34.5,32.4,30.08,NE,37,3.0,3.0,92,0.00,,SKC,0.00,VWS V14.00,2013-05-10 09:55:00,
2013-05-10 04:00:00,34.5,32.4,30.07,NE,37,2.0,3.0,92,0.00,,SKC,0.00,VWS V14.00,2013-05-10 10:00:00,
2013-05-10 04:05:00,34.5,32.4,30.07,NE,37,0.0,2.0,92,0.00,,SKC,0.00,VWS V14.00,2013-05-10 10:05:00,
2013-05-10 04:10:00,34.5,32.4,30.07,NE,37,0.0,2.0,92,0.00,,SKC,0.00,VWS V14.00,2013-05-10 10:10:00,
2013-05-10 04:16:00,34.4,32.3,30.08,NE,37,0.0,2.0,92,0.00,,SKC,0.00,VWS V14.00,2013-05-10 10:16:00,
2013-05-10 04:21:00,34.3,32.2,30.08,NE,37,0.0,2.0,92,0.00,,SKC,0.00,VWS V14.00,2013-05-10 10:21:00,
2013-05-10 04:26:00,34.1,32.0,30.08,NE,37,0.0,2.0,92,0.00,,SKC,0.00,VWS V14.00,2013-05-10 10:26:00,
2013-05-10 04:30:00,34.0,31.9,30.08,NE,37,0.0,2.0,92,0.00,,SKC,0.00,VWS V14.00,2013-05-10 10:30:00,
2013-05-10 04:31:00,34.1,32.0,30.08,NE,37,0.0,2.0,92,0.00,,SKC,0.00,VWS V14.00,2013-05-10 10:31:00,
2013-05-10 04:37:00,33.9,31.8,30.08,NE,37,0.0,0.0,92,0.00,,SKC,0.00,VWS V14.00,2013-05-10 10:37:00,
2013-05-10 04:42:00,33.8,31.7,30.08,NE,37,0.0,2.0,92,0.00,,SKC,0.00,VWS V14.00,2013-05-10 10:42:00,
2013-05-10 04:47:00,33.8,31.7,30.08,NE,37,0.0,2.0,92,0.00,,SKC,0.00,VWS V14.00,2013-05-10 10:47:00,
2013-05-10 04:52:00,33.7,31.6,30.08,NE,37,1.0,2.0,92,0.00,,SKC,0.00,VWS V14.00,2013-05-10 10:52:00,
2013-05-10 04:57:00,33.5,31.4,30.09,NE,37,0.0,2.0,92,0.00,,SKC,0.00,VWS V14.00,2013-05-10 10:57:00,
2013-05-10 05:00:00,33.5,31.4,30.08,NE,37,0.0,2.0,92,0.00,,SKC,0.00,VWS V14.00,2013-05-10 11:00:00,
2013-05-10 05:03:00,33.5,31.4,30.08,NE,37,0.0,0.0,92,0.00,,SKC,0.00,VWS V14.00,2013-05-10 11:03:00,
2013-05-10 05:08:00,33.5,31.7,30.09,NE,37,0.0,0.0,93,0.00,,SKC,0.00,VWS V14.00,2013-05-10 11:08:00,
2013-05-10 05:13:00,33.3,31.2,30.09,NE,37,1.0,2.0,92,0.00,,SKC,0.00,VWS V14.00,2013-05-10 11:13:00,
2013-05-10 05:18:00,33.0,30.9,30.09,NE,37,0.0,2.0,92,0.00,,SKC,0.00,VWS V14.00,2013-05-10 11:18:00,
2013-05-10 05:24:00,33.0,31.2,30.09,NE,37,0.0,2.0,93,0.00,,SKC,0.00,VWS V14.00,2013-05-10 11:24:00,
2013-05-10 05:29:00,32.8,31.0,30.09,NE,37,0.0,2.0,93,0.00,,SKC,0.00,VWS V14.00,2013-05-10 11:29:00,
2013-05-10 05:30:00,32.8,31.0,30.09,NE,37,0.0,2.0,93,0.00,,SKC,0.00,VWS V14.00,2013-05-10 11:30:00,
2013-05-10 05:34:00,32.8,31.0,30.09,NE,37,1.0,1.0,93,0.00,,SKC,0.00,VWS V14.00,2013-05-10 11:34:00,
2013-05-10 05:39:00,32.8,31.0,30.09,NE,37,2.0,3.0,93,0.00,,SKC,0.00,VWS V14.00,2013-05-10 11:39:00,
2013-05-10 05:44:00,32.7,30.9,30.10,NE,37,0.0,3.0,93,0.00,,SKC,0.00,VWS V14.00,2013-05-10 11:44:00,
2013-05-10 05:50:00,32.6,30.8,30.10,NE,37,0.0,3.0,93,0.00,,SKC,0.00,VWS V14.00,2013-05-10 11:50:00,
2013-05-10 05:55:00,32.5,30.7,30.10,NE,37,0.0,3.0,93,0.00,,SKC,0.00,VWS V14.00,2013-05-10 11:55:00,
2013-05-10 06:00:00,32.5,30.7,30.10,NE,37,0.0,3.0,93,0.00,,SKC,0.00,VWS V14.00,2013-05-10 12:00:00,
2013-05-10 06:05:00,32.3,30.5,30.10,NE,37,1.0,1.0,93,0.00,,SKC,0.00,VWS V14.00,2013-05-10 12:05:00,
2013-05-10 06:10:00,32.2,30.4,30.10,NE,37,1.0,3.0,93,0.00,,SKC,0.00,VWS V14.00,2013-05-10 12:10:00,
2013-05-10 06:16:00,32.1,30.3,30.11,NE,37,0.0,3.0,93,0.00,,SKC,0.00,VWS V14.00,2013-05-10 12:16:00,
2013-05-10 06:21:00,32.1,30.6,30.11,NE,37,0.0,3.0,94,0.00,,SKC,0.00,VWS V14.00,2013-05-10 12:21:00,
2013-05-10 06:26:00,32.1,30.6,30.11,NE,37,0.0,3.0,94,0.00,,SKC,0.00,VWS V14.00,2013-05-10 12:26:00,
2013-05-10 06:30:00,32.0,30.2,30.11,NE,37,0.0,3.0,93,0.00,,SKC,0.00,VWS V14.00,2013-05-10 12:30:00,
2013-05-10 06:32:00,32.0,30.2,30.11,NE,37,0.0,3.0,93,0.00,,SKC,0.00,VWS V14.00,2013-05-10 12:32:00,
2013-05-10 06:37:00,32.0,30.5,30.11,NE,37,0.0,0.0,94,0.00,,SKC,0.00,VWS V14.00,2013-05-10 12:37:00,
2013-05-10 06:42:00,32.2,30.7,30.12,NE,37,0.0,0.0,94,0.00,,SKC,0.00,VWS V14.00,2013-05-10 12:42:00,
2013-05-10 06:47:00,32.1,30.6,30.12,NE,37,0.0,0.0,94,0.00,,SKC,0.00,VWS V14.00,2013-05-10 12:47:00,
2013-05-10 06:52:00,32.0,30.5,30.13,NE,37,0.0,0.0,94,0.00,,SKC,0.00,VWS V14.00,2013-05-10 12:52:00,
2013-05-10 06:58:00,32.1,30.6,30.13,NE,37,1.0,1.0,94,0.00,,SKC,0.00,VWS V14.00,2013-05-10 12:58:00,
2013-05-10 07:00:00,32.2,30.7,30.13,NE,37,0.0,1.0,94,0.00,,SKC,0.00,VWS V14.00,2013-05-10 13:00:00,
2013-05-10 07:03:00,32.2,30.7,30.13,NE,37,0.0,0.0,94,0.00,,SKC,0.00,VWS V14.00,2013-05-10 13:03:00,
2013-05-10 07:09:00,32.4,30.9,30.13,NE,37,0.0,0.0,94,0.00,,SKC,0.00,VWS V14.00,2013-05-10 13:09:00,
2013-05-10 07:14:00,32.4,30.9,30.13,NE,37,0.0,0.0,94,0.00,,SKC,0.00,VWS V14.00,2013-05-10 13:14:00,
2013-05-10 07:19:00,32.6,31.3,30.13,NE,37,0.0,0.0,95,0.00,,SKC,0.00,VWS V14.00,2013-05-10 13:19:00,
2013-05-10 07:24:00,32.8,31.5,30.14,NE,37,0.0,2.0,95,0.00,,SKC,0.00,VWS V14.00,2013-05-10 13:24:00,
2013-05-10 07:29:00,33.4,32.1,30.14,NE,37,0.0,2.0,95,0.00,,SKC,0.00,VWS V14.00,2013-05-10 13:29:00,
2013-05-10 07:30:00,33.5,32.2,30.13,NE,37,0.0,2.0,95,0.00,,SKC,0.00,VWS V14.00,2013-05-10 13:30:00,
2013-05-10 07:35:00,33.7,32.4,30.13,NE,37,0.0,1.0,95,0.00,,SKC,0.01,VWS V14.00,2013-05-10 13:35:00,
2013-05-10 07:40:00,33.9,32.6,30.13,NE,37,0.0,1.0,95,0.00,,SKC,0.01,VWS V14.00,2013-05-10 13:40:00,
2013-05-10 07:45:00,34.4,33.1,30.13,NE,37,0.0,1.0,95,0.00,,SKC,0.01,VWS V14.00,2013-05-10 13:45:00,
2013-05-10 07:50:00,34.9,33.6,30.13,NE,37,0.0,1.0,95,0.00,,SKC,0.01,VWS V14.00,2013-05-10 13:50:00,
2013-05-10 07:56:00,35.3,34.0,30.13,NE,37,0.0,1.0,95,0.00,,SKC,0.01,VWS V14.00,2013-05-10 13:56:00,
2013-05-10 08:00:00,35.7,34.4,30.13,NE,37,0.0,1.0,95,0.00,,SKC,0.01,VWS V14.00,2013-05-10 14:00:00,
2013-05-10 08:01:00,35.7,34.4,30.13,NE,37,0.0,1.0,95,0.00,,SKC,0.01,VWS V14.00,2013-05-10 14:01:00,
2013-05-10 08:06:00,36.1,34.5,30.13,NE,37,0.0,0.0,94,0.00,,SKC,0.01,VWS V14.00,2013-05-10 14:06:00,
2013-05-10 08:11:00,36.5,34.7,30.14,NE,37,0.0,0.0,93,0.00,,SKC,0.01,VWS V14.00,2013-05-10 14:11:00,
2013-05-10 08:16:00,37.2,35.4,30.14,NE,37,0.0,0.0,93,0.00,,SKC,0.01,VWS V14.00,2013-05-10 14:16:00,
2013-05-10 08:22:00,37.7,35.6,30.14,NE,37,0.0,0.0,92,0.00,,SKC,0.01,VWS V14.00,2013-05-10 14:22:00,
2013-05-10 08:27:00,38.2,35.8,30.14,NE,37,0.0,0.0,91,0.00,,SKC,0.01,VWS V14.00,2013-05-10 14:27:00,
2013-05-10 08:30:00,39.0,35.5,30.14,NE,37,0.0,0.0,87,0.00,,SKC,0.01,VWS V14.00,2013-05-10 14:30:00,
2013-05-10 08:32:00,39.0,35.5,30.13,NE,37,0.0,0.0,87,0.00,,SKC,0.01,VWS V14.00,2013-05-10 14:32:00,
2013-05-10 08:37:00,40.1,35.7,30.13,NE,37,0.0,0.0,84,0.00,,SKC,0.01,VWS V14.00,2013-05-10 14:37:00,
2013-05-10 08:43:00,41.2,35.8,30.13,NE,37,0.0,0.0,81,0.00,,SKC,0.01,VWS V14.00,2013-05-10 14:43:00,
2013-05-10 08:48:00,42.6,35.9,30.13,NE,37,2.0,2.0,77,0.00,,SKC,0.01,VWS V14.00,2013-05-10 14:48:00,
2013-05-10 08:53:00,43.8,35.7,30.13,NE,37,0.0,2.0,73,0.00,,SKC,0.01,VWS V14.00,2013-05-10 14:53:00,
2013-05-10 08:58:00,45.4,35.8,30.13,NE,37,0.0,2.0,69,0.00,,SKC,0.01,VWS V14.00,2013-05-10 14:58:00,
2013-05-10 09:00:00,46.3,36.0,30.13,NE,37,0.0,2.0,67,0.00,,SKC,0.01,VWS V14.00,2013-05-10 15:00:00,
2013-05-10 09:04:00,46.6,35.9,30.13,NE,37,0.0,0.0,66,0.00,,SKC,0.01,VWS V14.00,2013-05-10 15:04:00,
2013-05-10 09:09:00,47.4,35.8,30.12,NE,37,0.0,0.0,64,0.00,,SKC,0.01,VWS V14.00,2013-05-10 15:09:00,
2013-05-10 09:14:00,48.4,36.0,30.12,NE,37,0.0,0.0,62,0.00,,SKC,0.01,VWS V14.00,2013-05-10 15:14:00,
2013-05-10 09:19:00,49.3,35.2,30.12,NE,37,0.0,0.0,58,0.00,,SKC,0.01,VWS V14.00,2013-05-10 15:19:00,
2013-05-10 09:25:00,49.7,36.0,30.12,NE,37,0.0,1.0,59,0.00,,SKC,0.01,VWS V14.00,2013-05-10 15:25:00,
2013-05-10 09:30:00,50.1,36.3,30.12,ESE,110,0.0,4.0,59,0.00,,SKC,0.01,VWS V14.00,2013-05-10 15:30:00,
2013-05-10 09:35:00,50.6,36.4,30.12,SE,128,0.0,5.0,58,0.00,,SKC,0.01,VWS V14.00,2013-05-10 15:35:00,
2013-05-10 09:40:00,51.2,36.5,30.12,South,169,4.0,5.0,57,0.00,,SKC,0.01,VWS V14.00,2013-05-10 15:40:00,
2013-05-10 09:46:00,51.6,37.8,30.12,South,171,0.0,5.0,59,0.00,,SKC,0.01,VWS V14.00,2013-05-10 15:46:00,
2013-05-10 09:51:00,52.1,37.3,30.12,SSW,207,4.0,5.0,57,0.00,,SKC,0.01,VWS V14.00,2013-05-10 15:51:00,
2013-05-10 09:56:00,52.4,37.6,30.12,SSW,200,4.0,5.0,57,0.00,,SKC,0.01,VWS V14.00,2013-05-10 15:56:00,
2013-05-10 10:00:00,52.7,37.0,30.11,SSW,202,0.0,5.0,55,0.00,,SKC,0.01,VWS V14.00,2013-05-10 16:00:00,
2013-05-10 10:01:00,52.7,37.0,30.11,SSW,202,2.0,5.0,55,0.00,,SKC,0.01,VWS V14.00,2013-05-10 16:01:00,
2013-05-10 10:07:00,52.6,38.3,30.11,SW,215,4.0,5.0,58,0.00,,SKC,0.01,VWS V14.00,2013-05-10 16:07:00,
2013-05-10 10:12:00,52.6,39.1,30.11,SSW,213,0.0,5.0,60,0.00,,SKC,0.01,VWS V14.00,2013-05-10 16:12:00,
2013-05-10 10:17:00,53.1,39.6,30.11,SSW,207,0.0,5.0,60,0.00,,SKC,0.01,VWS V14.00,2013-05-10 16:17:00,
2013-05-10 10:22:00,53.7,39.3,30.11,SW,217,2.0,5.0,58,0.00,,SKC,0.01,VWS V14.00,2013-05-10 16:22:00,
2013-05-10 10:27:00,53.9,39.5,30.10,SW,217,0.0,5.0,58,0.00,,SKC,0.01,VWS V14.00,2013-05-10 16:27:00,
2013-05-10 10:30:00,54.2,38.4,30.10,SE,144,0.0,5.0,55,0.00,,SKC,0.01,VWS V14.00,2013-05-10 16:30:00,
2013-05-10 10:33:00,54.2,38.4,30.10,SE,144,0.0,0.0,55,0.00,,SKC,0.01,VWS V14.00,2013-05-10 16:33:00,
2013-05-10 10:38:00,54.8,38.5,30.10,South,183,0.0,4.0,54,0.00,,SKC,0.01,VWS V14.00,2013-05-10 16:38:00,
2013-05-10 10:43:00,55.5,38.7,30.10,South,183,0.0,4.0,53,0.00,,SKC,0.01,VWS V14.00,2013-05-10 16:43:00,
2013-05-10 10:48:00,56.2,37.8,30.09,South,189,0.0,4.0,50,0.00,,SKC,0.01,VWS V14.00,2013-05-10 16:48:00,
2013-05-10 10:53:00,56.4,37.5,30.10,South,189,0.0,4.0,49,0.00,,SKC,0.01,VWS V14.00,2013-05-10 16:53:00,
2013-05-10 10:59:00,56.9,38.0,30.10,South,189,0.0,4.0,49,0.00,,SKC,0.01,VWS V14.00,2013-05-10 16:59:00,
2013-05-10 11:00:00,57.0,37.5,30.09,South,189,0.0,4.0,48,0.00,,SKC,0.01,VWS V14.00,2013-05-10 17:00:00,
2013-05-10 11:04:00,57.0,37.5,30.09,South,189,1.0,4.0,48,0.00,,SKC,0.01,VWS V14.00,2013-05-10 17:04:00,
2013-05-10 11:09:00,56.8,37.3,30.09,South,189,0.0,5.0,48,0.00,,SKC,0.01,VWS V14.00,2013-05-10 17:09:00,
2013-05-10 11:14:00,56.7,38.3,30.09,SSW,206,1.0,5.0,50,0.00,,SKC,0.01,VWS V14.00,2013-05-10 17:14:00,
2013-05-10 11:20:00,56.9,36.9,30.09,SSW,206,0.0,5.0,47,0.00,,SKC,0.01,VWS V14.00,2013-05-10 17:20:00,
2013-05-10 11:25:00,57.2,37.2,30.09,SSW,204,2.0,5.0,47,0.00,,SKC,0.01,VWS V14.00,2013-05-10 17:25:00,
2013-05-10 11:30:00,57.4,36.8,30.09,SSW,202,0.0,5.0,46,0.00,,SKC,0.01,VWS V14.00,2013-05-10 17:30:00,
2013-05-10 11:35:00,57.8,38.3,30.08,SW,222,0.0,3.0,48,0.00,,SKC,0.01,VWS V14.00,2013-05-10 17:35:00,
2013-05-10 11:40:00,58.1,36.3,30.08,SSW,213,0.0,4.0,44,0.00,,SKC,0.01,VWS V14.00,2013-05-10 17:40:00,
2013-05-10 11:46:00,58.1,36.3,30.08,SSW,213,0.0,4.0,44,0.00,,SKC,0.01,VWS V14.00,2013-05-10 17:46:00,
2013-05-10 11:51:00,58.6,38.5,30.08,SW,215,2.0,5.0,47,0.00,,SKC,0.01,VWS V14.00,2013-05-10 17:51:00,
2013-05-10 11:56:00,59.3,37.4,30.08,SW,217,0.0,5.0,44,0.00,,SKC,0.01,VWS V14.00,2013-05-10 17:56:00,
2013-05-10 12:00:00,59.3,36.2,30.08,SW,217,0.0,5.0,42,0.00,,SKC,0.01,VWS V14.00,2013-05-10 18:00:00,
2013-05-10 12:01:00,59.3,36.2,30.08,SW,217,2.0,5.0,42,0.00,,SKC,0.01,VWS V14.00,2013-05-10 18:01:00,
2013-05-10 12:07:00,59.1,36.0,30.08,SW,217,0.0,5.0,42,0.00,,SKC,0.01,VWS V14.00,2013-05-10 18:07:00,
2013-05-10 12:12:00,59.2,37.3,30.08,SW,217,4.0,5.0,44,0.00,,SKC,0.01,VWS V14.00,2013-05-10 18:12:00,
2013-05-10 12:17:00,59.7,37.2,30.08,SSW,212,1.0,5.0,43,0.00,,SKC,0.01,VWS V14.00,2013-05-10 18:17:00,
2013-05-10 12:22:00,60.4,36.6,30.08,South,169,1.0,5.0,41,0.00,,SKC,0.01,VWS V14.00,2013-05-10 18:22:00,
2013-05-10 12:27:00,61.0,36.5,30.07,SW,221,3.0,6.0,40,0.00,,SKC,0.01,VWS V14.00,2013-05-10 18:27:00,
2013-05-10 12:30:00,61.3,35.5,30.07,SSW,196,3.0,6.0,38,0.00,,SKC,0.01,VWS V14.00,2013-05-10 18:30:00,
2013-05-10 12:33:00,61.5,35.0,30.07,SSW,196,1.0,3.0,37,0.00,,SKC,0.01,VWS V14.00,2013-05-10 18:33:00,
2013-05-10 12:38:00,62.0,38.0,30.07,SW,217,2.0,3.0,41,0.00,,SKC,0.01,VWS V14.00,2013-05-10 18:38:00,
2013-05-10 12:43:00,61.8,36.0,30.07,SSW,196,5.0,5.0,38,0.00,,SKC,0.01,VWS V14.00,2013-05-10 18:43:00,
2013-05-10 12:48:00,61.4,35.6,30.07,West,271,4.0,5.0,38,0.00,,SKC,0.01,VWS V14.00,2013-05-10 18:48:00,
2013-05-10 12:53:00,61.4,33.5,30.07,SSW,195,6.0,7.0,35,0.00,,SKC,0.01,VWS V14.00,2013-05-10 18:53:00,
2013-05-10 12:59:00,61.4,32.1,30.07,South,182,4.0,8.0,33,0.00,,SKC,0.01,VWS V14.00,2013-05-10 18:59:00,
2013-05-10 13:00:00,61.3,33.4,30.07,South,181,5.0,8.0,35,0.00,,SKC,0.01,VWS V14.00,2013-05-10 19:00:00,
2013-05-10 13:04:00,61.3,32.7,30.06,South,180,2.0,5.0,34,0.00,,SKC,0.01,VWS V14.00,2013-05-10 19:04:00,
2013-05-10 13:09:00,61.3,32.7,30.06,SW,223,0.0,6.0,34,0.00,,SKC,0.01,VWS V14.00,2013-05-10 19:09:00,
2013-05-10 13:14:00,61.6,35.1,30.05,South,175,5.0,7.0,37,0.00,,SKC,0.01,VWS V14.00,2013-05-10 19:14:00,
2013-05-10 13:20:00,62.3,34.3,30.05,SSW,193,8.0,12.0,35,0.00,,SKC,0.01,VWS V14.00,2013-05-10 19:20:00,
2013-05-10 13:25:00,61.5,34.3,30.05,SSW,200,14.0,16.0,36,0.00,,SKC,0.01,VWS V14.00,2013-05-10 19:25:00,
2013-05-10 13:30:00,61.1,34.0,30.05,SSW,212,8.0,16.0,36,0.00,,SKC,0.01,VWS V14.00,2013-05-10 19:30:00,
2013-05-10 13:35:00,61.1,35.3,30.05,SSW,194,3.0,9.0,38,0.00,,SKC,0.01,VWS V14.00,2013-05-10 19:35:00,
2013-05-10 13:41:00,61.3,36.2,30.05,SSW,197,4.0,9.0,39,0.00,,SKC,0.01,VWS V14.00,2013-05-10 19:41:00,
2013-05-10 13:46:00,62.2,35.6,30.05,SW,232,5.0,10.0,37,0.00,,SKC,0.01,VWS V14.00,2013-05-10 19:46:00,
2013-05-10 13:51:00,62.3,35.0,30.05,WSW,241,4.0,14.0,36,0.00,,SKC,0.01,VWS V14.00,2013-05-10 19:51:00,
2013-05-10 13:56:00,61.9,34.0,30.05,SW,215,0.0,14.0,35,0.00,,SKC,0.01,VWS V14.00,2013-05-10 19:56:00,
2013-05-10 14:00:00,61.6,34.4,30.05,SW,221,5.0,14.0,36,0.00,,SKC,0.01,VWS V14.00,2013-05-10 20:00:00,
2013-05-10 14:02:00,61.6,34.4,30.05,SW,220,6.0,14.0,36,0.00,,SKC,0.01,VWS V14.00,2013-05-10 20:02:00,
2013-05-10 14:07:00,61.3,34.1,30.05,SSW,201,2.0,8.0,36,0.00,,SKC,0.01,VWS V14.00,2013-05-10 20:07:00,
2013-05-10 14:12:00,61.6,33.7,30.05,SSW,193,5.0,9.0,35,0.00,,SKC,0.01,VWS V14.00,2013-05-10 20:12:00,
2013-05-10 14:17:00,62.7,34.7,30.05,WSW,241,0.0,9.0,35,0.00,,SKC,0.01,VWS V14.00,2013-05-10 20:17:00,
2013-05-10 14:22:00,63.0,32.7,30.05,SSE,159,8.0,9.0,32,0.00,,SKC,0.01,VWS V14.00,2013-05-10 20:22:00,
2013-05-10 14:28:00,62.7,33.2,30.05,WSW,249,2.0,9.0,33,0.00,,SKC,0.01,VWS V14.00,2013-05-10 20:28:00,
2013-05-10 14:30:00,62.9,33.4,30.05,SE,136,5.0,9.0,33,0.00,,SKC,0.01,VWS V14.00,2013-05-10 20:30:00,
2013-05-10 14:33:00,62.9,33.4,30.05,SSE,162,0.0,5.0,33,0.00,,SKC,0.01,VWS V14.00,2013-05-10 20:33:00,
2013-05-10 14:38:00,63.1,33.6,30.05,ESE,111,6.0,7.0,33,0.00,,SKC,0.01,VWS V14.00,2013-05-10 20:38:00,
2013-05-10 14:43:00,63.0,34.2,30.05,SE,124,0.0,8.0,34,0.00,,SKC,0.01,VWS V14.00,2013-05-10 20:43:00,
2013-05-10 14:48:00,62.9,33.4,30.05,SW,229,1.0,8.0,33,0.00,,SKC,0.01,VWS V14.00,2013-05-10 20:48:00,
2013-05-10 14:54:00,62.9,33.4,30.05,WSW,243,2.0,8.0,33,0.00,,SKC,0.01,VWS V14.00,2013-05-10 20:54:00,
2013-05-10 14:59:00,63.1,33.6,30.05,WSW,243,1.0,8.0,33,0.00,,SKC,0.01,VWS V14.00,2013-05-10 20:59:00,
2013-05-10 15:00:00,63.2,33.7,30.05,South,188,3.0,8.0,33,0.00,,SKC,0.01,VWS V14.00,2013-05-10 21:00:00,
2013-05-10 15:04:00,63.2,33.6,30.05,South,177,2.0,4.0,33,0.00,,SKC,0.01,VWS V14.00,2013-05-10 21:04:00,
2013-05-10 15:09:00,63.4,33.8,30.05,SSE,159,0.0,4.0,33,0.00,,SKC,0.01,VWS V14.00,2013-05-10 21:09:00,
2013-05-10 15:14:00,63.6,35.5,30.04,SSE,160,0.0,4.0,35,0.00,,SKC,0.01,VWS V14.00,2013-05-10 21:14:00,
2013-05-10 15:20:00,63.8,32.6,30.04,NE,42,0.0,4.0,31,0.00,,SKC,0.01,VWS V14.00,2013-05-10 21:20:00,
2013-05-10 15:25:00,64.0,33.6,30.04,NE,46,0.0,4.0,32,0.00,,SKC,0.01,VWS V14.00,2013-05-10 21:25:00,
2013-05-10 15:30:00,64.6,35.6,30.03,West,265,1.0,4.0,34,0.00,,SKC,0.01,VWS V14.00,2013-05-10 21:30:00,
2013-05-10 15:35:00,65.0,32.8,30.03,SW,215,1.0,7.0,30,0.00,,SKC,0.01,VWS V14.00,2013-05-10 21:35:00,
2013-05-10 15:41:00,65.1,32.9,30.03,South,171,2.0,8.0,30,0.00,,SKC,0.01,VWS V14.00,2013-05-10 21:41:00,
2013-05-10 15:46:00,64.9,35.1,30.04,SSW,194,0.0,8.0,33,0.00,,SKC,0.01,VWS V14.00,2013-05-10 21:46:00,
2013-05-10 15:51:00,65.0,33.7,30.03,SSW,194,0.0,8.0,31,0.00,,SKC,0.01,VWS V14.00,2013-05-10 21:51:00,
2013-05-10 15:56:00,65.6,34.2,30.03,SSW,205,0.0,8.0,31,0.00,,SKC,0.01,VWS V14.00,2013-05-10 21:56:00,
2013-05-10 15:58:00,65.9,35.2,30.03,SSW,213,5.0,8.0,32,0.00,,SKC,0.01,VWS V14.00,2013-05-10 21:58:00,
2013-05-10 15:59:00,66.0,33.7,30.03,South,177,5.0,8.0,30,0.00,,SKC,0.01,VWS V14.00,2013-05-10 21:59:00,
2013-05-10 16:00:00,66.1,34.6,30.03,WNW,290,4.0,8.0,31,0.00,,SKC,0.01,VWS V14.00,2013-05-10 22:00:00,
2013-05-10 16:01:00,66.1,33.8,30.03,WSW,249,6.0,8.0,30,0.00,,SKC,0.01,VWS V14.00,2013-05-10 22:01:00,
2013-05-10 16:07:00,66.3,32.2,30.03,North,5,1.0,7.0,28,0.00,,SKC,0.01,VWS V14.00,2013-05-10 22:07:00,
2013-05-10 16:12:00,66.5,34.1,30.03,NW,313,1.0,7.0,30,0.00,,SKC,0.01,VWS V14.00,2013-05-10 22:12:00,
2013-05-10 16:17:00,66.7,31.7,30.03,WSW,253,0.0,7.0,27,0.00,,SKC,0.01,VWS V14.00,2013-05-10 22:17:00,
2013-05-10 16:22:00,67.1,31.1,30.02,SSW,205,1.0,7.0,26,0.00,,SKC,0.01,VWS V14.00,2013-05-10 22:22:00,
2013-05-10 16:27:00,67.4,28.4,30.02,SW,233,4.0,8.0,23,0.00,,SKC,0.01,VWS V14.00,2013-05-10 22:27:00,
2013-05-10 16:30:00,67.3,24.9,30.02,SSW,205,5.0,9.0,20,0.00,,SKC,0.01,VWS V14.00,2013-05-10 22:30:00,
2013-05-10 16:33:00,67.3,24.9,30.02,SW,215,0.0,5.0,20,0.00,,SKC,0.01,VWS V14.00,2013-05-10 22:33:00,
2013-05-10 16:38:00,67.1,25.9,30.02,NNE,18,10.0,12.0,21,0.00,,SKC,0.01,VWS V14.00,2013-05-10 22:38:00,
2013-05-10 16:43:00,67.0,28.0,30.02,SSW,196,2.0,12.0,23,0.00,,SKC,0.01,VWS V14.00,2013-05-10 22:43:00,
2013-05-10 16:48:00,67.0,30.0,30.03,West,275,2.0,14.0,25,0.00,,SKC,0.01,VWS V14.00,2013-05-10 22:48:00,
2013-05-10 16:53:00,66.8,30.8,30.03,WNW,301,0.0,14.0,26,0.00,,SKC,0.01,VWS V14.00,2013-05-10 22:53:00,
2013-05-10 16:59:00,67.0,31.0,30.04,NNE,30,4.0,14.0,26,0.00,,SKC,0.01,VWS V14.00,2013-05-10 22:59:00,
2013-05-10 17:00:00,66.7,31.7,30.04,NW,326,1.0,14.0,27,0.00,,SKC,0.01,VWS V14.00,2013-05-10 23:00:00,
2013-05-10 17:04:00,66.5,31.5,30.04,SSW,212,1.0,10.0,27,0.00,,SKC,0.01,VWS V14.00,2013-05-10 23:04:00,
2013-05-10 17:09:00,65.7,31.7,30.04,WNW,302,5.0,13.0,28,0.00,,SKC,0.01,VWS V14.00,2013-05-10 23:09:00,
2013-05-10 17:14:00,64.9,31.9,30.04,NNE,16,7.0,13.0,29,0.00,,SKC,0.01,VWS V14.00,2013-05-10 23:14:00,
2013-05-10 17:19:00,64.3,29.6,30.04,North,349,0.0,13.0,27,0.00,,SKC,0.01,VWS V14.00,2013-05-10 23:19:00,
2013-05-10 17:25:00,64.8,32.7,30.04,WNW,295,2.0,13.0,30,0.00,,SKC,0.01,VWS V14.00,2013-05-10 23:25:00,
2013-05-10 17:30:00,66.0,33.7,30.04,West,270,0.0,13.0,30,0.00,,SKC,0.01,VWS V14.00,2013-05-10 23:30:00,
2013-05-10 17:35:00,67.0,32.8,30.03,West,273,0.0,4.0,28,0.00,,SKC,0.01,VWS V14.00,2013-05-10 23:35:00,
2013-05-10 17:40:00,67.5,32.4,30.03,SW,225,2.0,4.0,27,0.00,,SKC,0.01,VWS V14.00,2013-05-10 23:40:00,
2013-05-10 17:45:00,67.4,29.4,30.03,West,259,2.0,6.0,24,0.00,,SKC,0.01,VWS V14.00,2013-05-10 23:45:00,
2013-05-10 17:51:00,67.4,31.4,30.03,NW,305,1.0,6.0,26,0.00,,SKC,0.01,VWS V14.00,2013-05-10 23:51:00,
2013-05-10 17:56:00,67.9,29.8,30.04,South,188,3.0,9.0,24,0.00,,SKC,0.01,VWS V14.00,2013-05-10 23:56:00,
2013-05-10 18:00:00,66.8,29.9,30.04,NE,53,6.0,15.0,25,0.00,,SKC,0.01,VWS V14.00,2013-05-11 00:00:00,
2013-05-10 18:01:00,67.0,31.0,30.04,NE,36,5.0,15.0,26,0.00,,SKC,0.01,VWS V14.00,2013-05-11 00:01:00,
2013-05-10 18:06:00,65.7,29.9,30.05,NW,315,5.0,18.0,26,0.00,,SKC,0.01,VWS V14.00,2013-05-11 00:06:00,
2013-05-10 18:11:00,64.5,29.8,30.05,NE,53,1.0,18.0,27,0.00,,SKC,0.01,VWS V14.00,2013-05-11 00:11:00,
2013-05-10 18:17:00,64.1,30.4,30.04,NNW,345,2.0,18.0,28,0.00,,SKC,0.01,VWS V14.00,2013-05-11 00:17:00,
2013-05-10 18:22:00,63.8,30.1,30.05,ENE,67,4.0,18.0,28,0.00,,SKC,0.01,VWS V14.00,2013-05-11 00:22:00,
2013-05-10 18:27:00,63.6,29.0,30.05,ENE,68,0.0,18.0,27,0.00,,SKC,0.01,VWS V14.00,2013-05-11 00:27:00,
2013-05-10 18:30:00,63.5,30.7,30.05,ENE,75,0.0,18.0,29,0.00,,SKC,0.01,VWS V14.00,2013-05-11 00:30:00,
2013-05-10 18:32:00,63.5,30.7,30.05,ENE,74,0.0,0.0,29,0.00,,SKC,0.01,VWS V14.00,2013-05-11 00:32:00,
2013-05-10 18:37:00,63.3,32.2,30.04,NNE,31,0.0,2.0,31,0.00,,SKC,0.01,VWS V14.00,2013-05-11 00:37:00,
2013-05-10 18:43:00,63.0,34.9,30.04,NNE,25,0.0,2.0,35,0.00,,SKC,0.01,VWS V14.00,2013-05-11 00:43:00,
2013-05-10 18:48:00,63.0,31.1,30.04,NNE,25,0.0,2.0,30,0.00,,SKC,0.01,VWS V14.00,2013-05-11 00:48:00,
2013-05-10 18:53:00,63.5,36.1,30.04,NNE,25,0.0,2.0,36,0.00,,SKC,0.01,VWS V14.00,2013-05-11 00:53:00,
2013-05-10 18:58:00,63.9,34.3,30.04,North,5,1.0,4.0,33,0.00,,SKC,0.01,VWS V14.00,2013-05-11 00:58:00,
2013-05-10 19:00:00,63.7,34.1,30.04,North,5,0.0,4.0,33,0.00,,SKC,0.01,VWS V14.00,2013-05-11 01:00:00,
2013-05-10 19:04:00,63.5,33.9,30.04,NNW,338,5.0,6.0,33,0.00,,SKC,0.01,VWS V14.00,2013-05-11 01:04:00,
2013-05-10 19:09:00,62.2,36.3,30.04,WNW,286,1.0,6.0,38,0.00,,SKC,0.01,VWS V14.00,2013-05-11 01:09:00,
2013-05-10 19:14:00,61.2,31.1,30.04,NNE,25,5.0,6.0,32,0.00,,SKC,0.01,VWS V14.00,2013-05-11 01:14:00,
2013-05-10 19:19:00,60.9,32.4,30.04,South,170,2.0,8.0,34,0.00,,SKC,0.01,VWS V14.00,2013-05-11 01:19:00,
2013-05-10 19:24:00,60.5,34.8,30.05,NW,309,0.0,8.0,38,0.00,,SKC,0.01,VWS V14.00,2013-05-11 01:24:00,
2013-05-10 19:30:00,59.8,32.1,30.05,NNE,27,0.0,8.0,35,0.00,,SKC,0.01,VWS V14.00,2013-05-11 01:30:00,
2013-05-10 19:35:00,59.3,35.0,30.05,NE,35,1.0,2.0,40,0.00,,SKC,0.01,VWS V14.00,2013-05-11 01:35:00,
2013-05-10 19:40:00,58.8,35.8,30.05,NE,35,1.0,3.0,42,0.00,,SKC,0.01,VWS V14.00,2013-05-11 01:40:00,
2013-05-10 19:45:00,58.0,37.4,30.06,NE,35,2.0,3.0,46,0.00,,SKC,0.01,VWS V14.00,2013-05-11 01:45:00,
2013-05-10 19:51:00,57.2,36.1,30.06,NE,35,2.0,4.0,45,0.00,,SKC,0.01,VWS V14.00,2013-05-11 01:51:00,
2013-05-10 19:56:00,56.6,35.0,30.06,NE,35,1.0,4.0,44,0.00,,SKC,0.01,VWS V14.00,2013-05-11 01:56:00,
2013-05-10 20:00:00,56.1,36.7,30.06,NE,35,0.0,4.0,48,0.00,,SKC,0.01,VWS V14.00,2013-05-11 02:00:00,
2013-05-10 20:01:00,56.2,36.3,30.06,NE,35,0.0,4.0,47,0.00,,SKC,0.01,VWS V14.00,2013-05-11 02:01:00,
2013-05-10 20:06:00,55.7,36.8,30.07,NE,35,0.0,0.0,49,0.00,,SKC,0.01,VWS V14.00,2013-05-11 02:06:00,
2013-05-10 20:11:00,55.2,37.4,30.07,NE,35,0.0,2.0,51,0.00,,SKC,0.01,VWS V14.00,2013-05-11 02:11:00,
2013-05-10 20:17:00,54.4,37.2,30.07,NE,35,0.0,2.0,52,0.00,,SKC,0.01,VWS V14.00,2013-05-11 02:17:00,
2013-05-10 20:22:00,53.8,36.1,30.07,NE,35,2.0,3.0,51,0.00,,SKC,0.01,VWS V14.00,2013-05-11 02:22:00,
2013-05-10 20:27:00,53.2,37.5,30.08,NE,35,0.0,3.0,55,0.00,,SKC,0.01,VWS V14.00,2013-05-11 02:27:00,
2013-05-10 20:30:00,52.6,37.4,30.07,NE,35,1.0,3.0,56,0.00,,SKC,0.01,VWS V14.00,2013-05-11 02:30:00,
2013-05-10 20:32:00,52.6,37.4,30.07,NE,35,0.0,1.0,56,0.00,,SKC,0.01,VWS V14.00,2013-05-11 02:32:00,
2013-05-10 20:38:00,52.0,36.3,30.08,NE,35,0.0,1.0,55,0.00,,SKC,0.01,VWS V14.00,2013-05-11 02:38:00,
2013-05-10 20:43:00,51.3,36.6,30.08,ENE,63,2.0,3.0,57,0.00,,SKC,0.01,VWS V14.00,2013-05-11 02:43:00,
2013-05-10 20:49:00,51.0,35.4,30.08,ENE,63,0.0,3.0,55,0.00,,SKC,0.01,VWS V14.00,2013-05-11 02:49:00,
2013-05-10 20:54:00,50.5,36.3,30.09,ENE,63,0.0,3.0,58,0.00,,SKC,0.01,VWS V14.00,2013-05-11 02:54:00,
2013-05-10 20:59:00,50.0,36.2,30.09,ENE,63,2.0,3.0,59,0.00,,SKC,0.01,VWS V14.00,2013-05-11 02:59:00,
2013-05-10 21:07:00,49.7,35.5,30.10,ENE,68,1.0,4.0,58,0.00,,SKC,0.01,VWS V14.00,2013-05-11 03:07:00,
2013-05-10 21:12:00,49.0,35.7,30.10,ENE,63,2.0,2.0,60,0.00,,SKC,0.01,VWS V14.00,2013-05-11 03:12:00,
2013-05-10 21:17:00,48.8,35.1,30.10,ENE,63,0.0,3.0,59,0.00,,SKC,0.01,VWS V14.00,2013-05-11 03:17:00,
2013-05-10 21:22:00,48.6,34.9,30.11,ENE,63,3.0,4.0,59,0.00,,SKC,0.01,VWS V14.00,2013-05-11 03:22:00,
2013-05-10 21:27:00,48.8,35.5,30.11,ENE,63,0.0,4.0,60,0.00,,SKC,0.01,VWS V14.00,2013-05-11 03:27:00,
2013-05-10 21:33:00,48.5,35.7,30.12,ENE,63,0.0,0.0,61,0.00,,SKC,0.01,VWS V14.00,2013-05-11 03:33:00,
2013-05-10 21:38:00,48.0,35.6,30.12,ENE,63,0.0,0.0,62,0.00,,SKC,0.01,VWS V14.00,2013-05-11 03:38:00,
2013-05-10 21:43:00,47.3,35.0,30.12,ENE,63,0.0,2.0,62,0.00,,SKC,0.01,VWS V14.00,2013-05-11 03:43:00,
2013-05-10 21:48:00,47.0,34.7,30.12,ENE,63,0.0,3.0,62,0.00,,SKC,0.01,VWS V14.00,2013-05-11 03:48:00,
2013-05-10 21:53:00,46.7,34.8,30.12,ENE,63,0.0,3.0,63,0.00,,SKC,0.01,VWS V14.00,2013-05-11 03:53:00,
2013-05-10 21:59:00,46.3,34.4,30.13,ENE,63,0.0,3.0,63,0.00,,SKC,0.01,VWS V14.00,2013-05-11 03:59:00,
2013-05-10 22:01:00,46.2,34.7,30.13,ENE,63,0.0,3.0,64,0.00,,SKC,0.01,VWS V14.00,2013-05-11 04:01:00,
2013-05-10 22:02:00,46.1,35.4,30.13,ENE,63,0.0,0.0,66,0.00,,SKC,0.01,VWS V14.00,2013-05-11 04:02:00,
2013-05-10 22:04:00,46.1,35.4,30.13,ENE,63,0.0,0.0,66,0.00,,SKC,0.01,VWS V14.00,2013-05-11 04:04:00,
2013-05-10 22:09:00,45.9,34.0,30.13,ENE,63,0.0,1.0,63,0.00,,SKC,0.01,VWS V14.00,2013-05-11 04:09:00,
2013-05-10 22:14:00,45.7,35.8,30.14,ENE,63,0.0,1.0,68,0.00,,SKC,0.01,VWS V14.00,2013-05-11 04:14:00,
2013-05-10 22:16:00,45.6,35.3,30.14,ENE,63,0.0,2.0,67,0.00,,SKC,0.01,VWS V14.00,2013-05-11 04:16:00,
2013-05-10 22:21:00,45.4,34.7,30.14,ENE,63,0.0,2.0,66,0.00,,SKC,0.01,VWS V14.00,2013-05-11 04:21:00,
2013-05-10 22:27:00,45.3,33.9,30.14,ENE,63,0.0,3.0,64,0.00,,SKC,0.01,VWS V14.00,2013-05-11 04:27:00,
2013-05-10 22:32:00,45.3,34.2,30.14,ENE,63,0.0,3.0,65,0.00,,SKC,0.01,VWS V14.00,2013-05-11 04:32:00,
2013-05-10 22:37:00,45.3,34.6,30.15,ENE,63,0.0,0.0,66,0.00,,SKC,0.01,VWS V14.00,2013-05-11 04:37:00,
2013-05-10 22:42:00,45.2,34.5,30.15,ENE,63,0.0,2.0,66,0.00,,SKC,0.01,VWS V14.00,2013-05-11 04:42:00,
2013-05-10 22:48:00,45.2,33.4,30.15,ENE,63,2.0,2.0,63,0.00,,SKC,0.01,VWS V14.00,2013-05-11 04:48:00,
2013-05-10 22:53:00,45.1,33.7,30.15,ENE,63,0.0,2.0,64,0.00,,SKC,0.01,VWS V14.00,2013-05-11 04:53:00,
2013-05-10 22:58:00,45.0,34.3,30.15,ENE,63,0.0,2.0,66,0.00,,SKC,0.01,VWS V14.00,2013-05-11 04:58:00,
2013-05-10 23:03:00,44.8,34.2,30.16,ENE,63,0.0,2.0,66,0.00,,SKC,0.01,VWS V14.00,2013-05-11 05:03:00,
2013-05-10 23:08:00,44.5,34.6,30.16,ENE,63,0.0,2.0,68,0.00,,SKC,0.01,VWS V14.00,2013-05-11 05:08:00,
2013-05-10 23:14:00,44.2,35.0,30.16,ENE,63,2.0,2.0,70,0.00,,SKC,0.01,VWS V14.00,2013-05-11 05:14:00,
2013-05-10 23:19:00,44.3,33.7,30.16,ENE,64,2.0,4.0,66,0.00,,SKC,0.01,VWS V14.00,2013-05-11 05:19:00,
2013-05-10 23:24:00,44.3,33.7,30.16,ENE,64,1.0,4.0,66,0.00,,SKC,0.01,VWS V14.00,2013-05-11 05:24:00,
2013-05-10 23:29:00,44.3,34.4,30.17,ENE,64,0.0,4.0,68,0.00,,SKC,0.01,VWS V14.00,2013-05-11 05:29:00,
2013-05-10 23:34:00,44.1,34.2,30.17,ENE,64,1.0,1.0,68,0.00,,SKC,0.01,VWS V14.00,2013-05-11 05:34:00,
2013-05-10 23:40:00,43.7,33.5,30.17,ENE,64,0.0,3.0,67,0.00,,SKC,0.01,VWS V14.00,2013-05-11 05:40:00,
2013-05-10 23:45:00,43.4,33.6,30.17,ENE,64,0.0,3.0,68,0.00,,SKC,0.01,VWS V14.00,2013-05-11 05:45:00,
2013-05-10 23:50:00,43.2,33.7,30.17,ENE,64,0.0,3.0,69,0.00,,SKC,0.01,VWS V14.00,2013-05-11 05:50:00,
2013-05-10 23:55:00,43.1,33.3,30.18,ENE,64,0.0,3.0,68,0.00,,SKC,0.01,VWS V14.00,2013-05-11 05:55:00,